Tracking 28520 objects as of 1-Mar-2024
HD Live streaming from Space Station
objects crossing your sky now

METEOR 1-27

Track METEOR 1-27 now!
10-day predictions
METEOR 1-27 is classified as:


NORAD ID: 9903
Int'l Code: 1977-024A
Perigee: 843.7 km
Apogee: 899.3 km
Inclination: 81.3 °
Period: 102.2 minutes
Semi major axis: 7242 km
RCS: 4.395 m2 (large)
Launch date: April 5, 1977
Source: Commonwealth of Independent States (former USSR) (CIS)
Launch site: PLESETSK MISSILE AND SPACE COMPLEX (PKMTR)
Your satellite tracking list
Your tracking list is empty




NASA's NSSDC Master Catalog

Two Line Element Set (TLE):
1 09903U 77024A   24060.54508563  .00000058  00000-0  26493-4 0  9990
2 09903  81.2750 229.3508 0038350 212.2323 147.6503 14.08547118409489
Source of the keplerian elements: AFSPC